EN

Hourly Weather Czyzowice

Today, 16 September, Thursday

Time Temperature Precipitation Wind Pressure Humidity
00:00 +18°C° 0 mm 1 mps 740 mmHg 81%
01:00 +16°C° 0 mm 1 mps 740 mmHg 82%
02:00 +18°C° 0 mm 1 mps 740 mmHg 81%
03:00 +18°C° 0 mm 1 mps 740 mmHg 80%
04:00 +18°C° 0 mm 1 mps 739 mmHg 78%
05:00 +19°C° 0 mm 1 mps 739 mmHg 76%
06:00 +19°C° 0 mm 1 mps 739 mmHg 75%
07:00 +20°C° 0 mm 1 mps 739 mmHg 73%
08:00 +21°C° 0 mm 1 mps 740 mmHg 72%
09:00 +21°C° 0 mm 1 mps 740 mmHg 71%
10:00 +22°C° 0 mm 1 mps 740 mmHg 71%
11:00 +23°C° 0 mm 1 mps 740 mmHg 66%
12:00 +24°C° 0 mm 2 mps 740 mmHg 62%
13:00 +26°C° 0 mm 2 mps 740 mmHg 58%
14:00 +25°C° 0,1 mm 2 mps 739 mmHg 60%
15:00 +25°C° 0,1 mm 1 mps 739 mmHg 61%
16:00 +25°C° 0,1 mm 1 mps 739 mmHg 63%
17:00 +23°C° 0,4 mm 1 mps 739 mmHg 71%
18:00 +20°C° 0,4 mm 2 mps 739 mmHg 80%
19:00 +18°C° 0,4 mm 2 mps 739 mmHg 89%
20:00 +18°C° 0,2 mm 2 mps 739 mmHg 91%
21:00 +18°C° 0,2 mm 2 mps 739 mmHg 93%
22:00 +19°C° 0,2 mm 1 mps 739 mmHg 95%
23:00 +19°C° 0,1 mm 1 mps 739 mmHg 95%

Tomorrow, 17 September, Friday

Time Temperature Precipitation Wind Pressure Humidity
00:00 +17°C° 0,1 mm 2 mps 739 mmHg 96%
01:00 +17°C° 0,1 mm 2 mps 739 mmHg 96%
02:00 +17°C° 0,4 mm 2 mps 738 mmHg 96%
03:00 +17°C° 0,4 mm 3 mps 738 mmHg 95%
04:00 +17°C° 0,4 mm 3 mps 738 mmHg 95%
05:00 +16°C° 2,4 mm 3 mps 738 mmHg 95%
06:00 +14°C° 2,4 mm 4 mps 738 mmHg 95%
07:00 +14°C° 2,4 mm 4 mps 738 mmHg 96%
08:00 +14°C° 2,2 mm 4 mps 738 mmHg 95%
09:00 +14°C° 2,2 mm 4 mps 738 mmHg 94%
10:00 +14°C° 2,2 mm 4 mps 738 mmHg 93%
11:00 +14°C° 1,4 mm 3 mps 738 mmHg 94%
12:00 +14°C° 1,4 mm 3 mps 738 mmHg 94%
13:00 +14°C° 1,4 mm 3 mps 738 mmHg 94%
14:00 +14°C° 0,4 mm 3 mps 738 mmHg 93%
15:00 +15°C° 0,4 mm 2 mps 738 mmHg 92%
16:00 +15°C° 0,4 mm 2 mps 738 mmHg 91%
17:00 +15°C° 0,1 mm 2 mps 738 mmHg 90%
18:00 +14°C° 0,1 mm 3 mps 738 mmHg 89%
19:00 +14°C° 0,1 mm 3 mps 738 mmHg 88%
20:00 +14°C° 0,1 mm 3 mps 738 mmHg 89%
21:00 +13°C° 0,1 mm 4 mps 738 mmHg 91%
22:00 +13°C° 0,1 mm 4 mps 738 mmHg 93%
23:00 +13°C° 0 mm 4 mps 738 mmHg 93%

Day after tomorrow, 18 September, Saturday

Time Temperature Precipitation Wind Pressure Humidity
00:00 +13°C° 0 mm 4 mps 738 mmHg 93%
01:00 +13°C° 0 mm 4 mps 738 mmHg 93%
02:00 +13°C° 0 mm 4 mps 738 mmHg 92%
03:00 +12°C° 0 mm 4 mps 738 mmHg 92%
04:00 +12°C° 0 mm 5 mps 738 mmHg 92%
05:00 +12°C° 0 mm 5 mps 738 mmHg 91%
06:00 +12°C° 0 mm 5 mps 738 mmHg 90%
07:00 +12°C° 0 mm 5 mps 738 mmHg 90%
08:00 +13°C° 0 mm 5 mps 738 mmHg 85%
09:00 +14°C° 0 mm 5 mps 738 mmHg 80%
10:00 +15°C° 0 mm 6 mps 738 mmHg 76%
11:00 +15°C° 0,2 mm 5 mps 738 mmHg 74%
12:00 +15°C° 0,2 mm 5 mps 738 mmHg 72%
13:00 +15°C° 0,2 mm 5 mps 738 mmHg 70%
14:00 +15°C° 0,2 mm 5 mps 738 mmHg 75%
15:00 +14°C° 0,2 mm 6 mps 738 mmHg 79%
16:00 +13°C° 0,2 mm 6 mps 738 mmHg 83%
17:00 +13°C° 0,1 mm 5 mps 739 mmHg 86%
18:00 +12°C° 0,1 mm 4 mps 739 mmHg 88%
19:00 +11°C° 0,1 mm 3 mps 739 mmHg 90%
20:00 +11°C° 0,2 mm 3 mps 739 mmHg 91%
21:00 +10°C° 0,2 mm 3 mps 739 mmHg 91%
22:00 +10°C° 0,2 mm 3 mps 739 mmHg 91%
23:00 +9°C° 0,4 mm 3 mps 739 mmHg 91%

19 September, Sunday

Time Temperature Precipitation Wind Pressure Humidity
00:00 +9°C° 0,4 mm 3 mps 739 mmHg 91%
01:00 +8°C° 0,4 mm 3 mps 740 mmHg 90%
02:00 +8°C° 0,1 mm 3 mps 740 mmHg 90%
03:00 +8°C° 0,1 mm 3 mps 740 mmHg 90%
04:00 +7°C° 0,1 mm 3 mps 740 mmHg 90%
05:00 +7°C° 0,1 mm 3 mps 740 mmHg 90%
06:00 +7°C° 0,1 mm 3 mps 740 mmHg 90%
07:00 +7°C° 0,1 mm 3 mps 741 mmHg 90%
08:00 +7°C° 0 mm 3 mps 741 mmHg 89%
09:00 +7°C° 0 mm 3 mps 741 mmHg 88%
10:00 +7°C° 0 mm 3 mps 742 mmHg 86%
11:00 +7°C° 0 mm 3 mps 742 mmHg 86%
12:00 +8°C° 0 mm 3 mps 742 mmHg 85%
13:00 +8°C° 0 mm 3 mps 742 mmHg 84%
14:00 +8°C° 0 mm 3 mps 742 mmHg 85%
15:00 +8°C° 0 mm 3 mps 742 mmHg 87%
16:00 +8°C° 0 mm 3 mps 742 mmHg 88%
17:00 +8°C° 0 mm 3 mps 743 mmHg 88%
18:00 +7°C° 0 mm 3 mps 743 mmHg 89%
19:00 +7°C° 0 mm 2 mps 744 mmHg 89%
20:00 +7°C° 0 mm 2 mps 744 mmHg 90%
21:00 +8°C° 0 mm 2 mps 744 mmHg 90%
22:00 +8°C° 0 mm 2 mps 744 mmHg 90%
23:00 +8°C° 0 mm 2 mps 744 mmHg 90%

20 September, Monday

Time Temperature Precipitation Wind Pressure Humidity
00:00 +8°C° 0 mm 2 mps 744 mmHg 90%
01:00 +8°C° 0 mm 2 mps 744 mmHg 90%
02:00 +8°C° 0 mm 2 mps 744 mmHg 89%
03:00 +7°C° 0 mm 2 mps 744 mmHg 89%
04:00 +7°C° 0 mm 2 mps 744 mmHg 88%
05:00 +7°C° 0 mm 2 mps 745 mmHg 86%
06:00 +7°C° 0 mm 2 mps 745 mmHg 83%
07:00 +7°C° 0 mm 2 mps 745 mmHg 81%
08:00 +9°C° 0 mm 3 mps 745 mmHg 74%
09:00 +10°C° 0 mm 4 mps 745 mmHg 68%
10:00 +11°C° 0 mm 4 mps 745 mmHg 61%
11:00 +12°C° 0 mm 4 mps 745 mmHg 58%
12:00 +12°C° 0 mm 5 mps 745 mmHg 55%
13:00 +13°C° 0 mm 5 mps 745 mmHg 52%
14:00 +13°C° 0 mm 5 mps 746 mmHg 54%
15:00 +12°C° 0 mm 4 mps 746 mmHg 57%
16:00 +12°C° 0 mm 4 mps 746 mmHg 59%
17:00 +11°C° 0 mm 3 mps 746 mmHg 62%
18:00 +10°C° 0 mm 3 mps 747 mmHg 64%
19:00 +9°C° 0 mm 2 mps 747 mmHg 67%
20:00 +9°C° 0 mm 2 mps 747 mmHg 68%
21:00 +9°C° 0 mm 1 mps 748 mmHg 69%
22:00 +9°C° 0 mm 1 mps 748 mmHg 70%
23:00 +9°C° 0 mm 1 mps 748 mmHg 71%

21 September, Tuesday

Time Temperature Precipitation Wind Pressure Humidity
00:00 +7°C° 0 mm 2 mps 748 mmHg 72%
01:00 +7°C° 0 mm 2 mps 748 mmHg 73%
02:00 +6°C° 0 mm 2 mps 748 mmHg 75%
03:00 +6°C° 0 mm 2 mps 748 mmHg 77%
04:00 +5°C° 0 mm 2 mps 748 mmHg 79%
05:00 +4°C° 0 mm 3 mps 748 mmHg 78%
06:00 +5°C° 0 mm 3 mps 749 mmHg 76%
07:00 +5°C° 0 mm 3 mps 749 mmHg 75%
08:00 +8°C° 0 mm 3 mps 749 mmHg 68%
09:00 +9°C° 0 mm 3 mps 749 mmHg 62%
10:00 +11°C° 0 mm 4 mps 749 mmHg 55%
11:00 +11°C° 0 mm 4 mps 748 mmHg 52%
12:00 +12°C° 0 mm 4 mps 748 mmHg 49%
13:00 +13°C° 0 mm 5 mps 748 mmHg 47%
14:00 +12°C° 0 mm 5 mps 748 mmHg 49%
15:00 +12°C° 0 mm 5 mps 747 mmHg 51%
16:00 +12°C° 0 mm 4 mps 747 mmHg 53%
17:00 +10°C° 0 mm 4 mps 747 mmHg 58%
18:00 +8°C° 0 mm 3 mps 747 mmHg 62%
19:00 +7°C° 0 mm 3 mps 748 mmHg 67%
20:00 +5°C° 0 mm 3 mps 748 mmHg 68%
21:00 +5°C° 0 mm 3 mps 747 mmHg 70%
22:00 +4°C° 0 mm 3 mps 747 mmHg 71%
23:00 +4°C° 0 mm 3 mps 747 mmHg 73%
Show more

We Need Your Consent

Meteoprog and our Service Providers may store and access personal data such as cookies, device identifiers or other similar technologies on your device and process such data to personalise content and ads, as well as provide social media features and to analyse the traffic.

  • Store and/or access information on your device

    Cookies, device identifiers or other information can be stored or accessed on your device for the purposes indicated above.

  • Personalised ads and content, ad and content measurement, audience insights, and products development

    Ads and content can be personalised based on a profile. More data can be added to better personalise ads and content. Ad and content performance can be measured. Insights about the audience who saw the ads and content can be derived. Such data can be used to develop or improve user’s experience, systems and software.

By clicking ‘I Agree’ you will allow the use of indicated cookies, device identifiers, web beacons or other similar technologies. Your settings can be changed in the browser on your device.

For certain purposes, legitimate interests may be relied on, rather than consent. You can read more about this in our Privacy and Cookie Policy.